DW8209 Gubbio IT current weather conditions

sailwx.info

Wind from 276

Air temperature 8.3° C
Dewpoint 7.4° C

Last reported at 2016-Oct-01 00:51 UTC.
Time now 2016-Oct-01 01:35 UTC

Location: N 43°19' E 012°34'.
View on Google Maps.

See reports from other nearby stations

  
Tides and Currents Weather Stations Pressure Air Temp Water Temp Dewpoint Dewpoint Depression Visibility Wind Speed Wind Dir Waves Ship Positions
date/time (UTC)wind fromknots sea level pressurealtimeterstation pressurevisibilityair tempwater tempwave heightnotes
2016-Oct-01 00:51 276 8.3
2016-Oct-01 00:36 274 1 gusting 2 8.9
2016-Oct-01 00:21 288 0 gusting 1 8.9
2016-Oct-01 00:06 287 8.9
2016-Sep-30 23:51 286 8.9
2016-Sep-30 23:36 290 8.9
2016-Sep-30 23:21 294 9.4
2016-Sep-30 23:07 294 0 gusting 2 9.4
2016-Sep-30 22:50 302 9.4
2016-Sep-30 22:35 277 9.4
2016-Sep-30 22:20 277 9.4
2016-Sep-30 22:06 277 9.4
2016-Sep-30 21:50 277 10.0
2016-Sep-30 21:36 277 10.0
2016-Sep-30 21:21 277 10.0
2016-Sep-30 21:06 277 10.6
2016-Sep-30 20:50 128 10.6
2016-Sep-30 20:35 130 11.1
2016-Sep-30 20:20 290 11.7
2016-Sep-30 20:05 293 11.7
2016-Sep-30 19:50 235 11.7
2016-Sep-30 19:36 093 12.2
2016-Sep-30 19:20 122 12.2
2016-Sep-30 19:05 224 12.8
2016-Sep-30 18:50 224 13.3
2016-Sep-30 18:36 302 13.9
2016-Sep-30 18:05 243 14.4
2016-Sep-30 17:50 243 15.0
2016-Sep-30 17:35 120 16.1
2016-Sep-30 17:20 243 16.7
2016-Sep-30 17:05 243 17.2
2016-Sep-30 16:50 240 18.9
2016-Sep-30 16:35 250 19.4
2016-Sep-30 16:20 201 20.6
2016-Sep-30 16:05 239 20.6
2016-Sep-30 15:50 246 0 gusting 4 21.1
2016-Sep-30 15:38 190 0 gusting 3 21.7
2016-Sep-30 15:20 135 1 gusting 3 21.7
2016-Sep-30 15:08 142 0 gusting 3 21.1
2016-Sep-30 14:50 186 1 gusting 4 21.1
2016-Sep-30 14:36 236 4 gusting 7 21.1
2016-Sep-30 14:20 173 3 gusting 6 21.7
2016-Sep-30 14:09 217 2 gusting 6 21.7
2016-Sep-30 13:50 250 3 gusting 6 21.7
2016-Sep-30 13:35 212 4 gusting 8 21.7
2016-Sep-30 13:20 201 3 gusting 9 21.7
2016-Sep-30 13:06 180 2 gusting 8 22.2
2016-Sep-30 12:50 169 3 gusting 9 21.7
2016-Sep-30 12:35 190 5 gusting 9 21.7
2016-Sep-30 12:20 215 1 gusting 6 21.7
2016-Sep-30 12:05 276 2 gusting 6 21.7
2016-Sep-30 11:50 201 2 gusting 7 21.1
2016-Sep-30 11:35 181 3 gusting 6 21.1
2016-Sep-30 11:20 201 4 gusting 8 21.7
2016-Sep-30 11:05 190 1 gusting 7 21.7
2016-Sep-30 10:50 170 2 gusting 7 21.1
2016-Sep-30 10:35 214 2 gusting 10 20.6
2016-Sep-30 10:19 204 3 gusting 5 20.6
2016-Sep-30 10:04 153 1 gusting 4 19.4
2016-Sep-30 09:49 152 3 gusting 6 18.3
2016-Sep-30 09:34 129 3 gusting 5 17.8
2016-Sep-30 09:20 119 3 gusting 5 17.8
2016-Sep-30 09:04 093 0 gusting 3 17.8
2016-Sep-30 08:49 078 16.7
2016-Sep-30 08:34 110 16.1
2016-Sep-30 08:19 131 15.6
2016-Sep-30 08:04 217 15.0
2016-Sep-30 07:49 007 13.9
2016-Sep-30 07:39 014 13.3
2016-Sep-30 07:19 311 11.1
2016-Sep-30 07:04 295 0 gusting 1 10.6
2016-Sep-30 06:49 295 10.0
2016-Sep-30 06:34 270 8.9
2016-Sep-30 06:19 271 8.3
2016-Sep-30 06:04 271 8.3
2016-Sep-30 05:49 265 7.2
2016-Sep-30 05:34 265 6.7
2016-Sep-30 05:19 264 6.7
2016-Sep-30 05:04 264 6.7
2016-Sep-30 04:48 264 6.7
2016-Sep-30 04:33 264 6.7
2016-Sep-30 04:19 265 7.2
2016-Sep-30 04:03 264 7.2
2016-Sep-30 03:49 264 7.2
2016-Sep-30 03:33 264 7.2
2016-Sep-30 03:18 265 7.8
2016-Sep-30 03:03 264 7.8
2016-Sep-30 02:48 285 7.8
2016-Sep-30 02:33 285 8.3
2016-Sep-30 02:18 285 7.8
2016-Sep-30 02:04 285 8.3
2016-Sep-30 01:48 283 8.3
2016-Sep-30 01:33 284 8.3
2016-Sep-30 01:18 283 8.9
2016-Sep-30 01:03 277 0 gusting 0 8.9
2016-Sep-30 00:48 300 8.9
2016-Sep-30 00:33 278 9.4
2016-Sep-30 00:18 276 0 gusting 1 8.9
2016-Sep-30 00:03 236 9.4
2016-Sep-29 23:48 236 9.4
2016-Sep-29 23:33 225 10.0
2016-Sep-29 23:18 225 10.0
2016-Sep-29 23:03 226 10.0
2016-Sep-29 22:48 226 10.6
2016-Sep-29 22:33 014 10.6
2016-Sep-29 22:18 278 10.6
2016-Sep-29 22:02 278 10.6
2016-Sep-29 21:48 278 11.1
2016-Sep-29 21:32 188 10.6
2016-Sep-29 21:17 188 10.6
2016-Sep-29 21:03 158 11.1
2016-Sep-29 20:48 004 11.1
2016-Sep-29 20:32 280 11.1
2016-Sep-29 20:17 278 11.7
2016-Sep-29 20:02 278 11.7
2016-Sep-29 19:47 278 12.2
2016-Sep-29 19:32 278 12.2
2016-Sep-29 19:17 279 12.8
2016-Sep-29 19:02 279 12.8
2016-Sep-29 18:47 280 12.8
2016-Sep-29 18:32 274 13.3
2016-Sep-29 18:17 270 14.4
2016-Sep-29 18:02 264 14.4
2016-Sep-29 17:47 263 15.6
2016-Sep-29 17:32 229 16.1
2016-Sep-29 17:17 143 17.2
2016-Sep-29 17:02 332 0 gusting 1 17.8
2016-Sep-29 16:48 274 19.4
2016-Sep-29 16:32 274 21.1
2016-Sep-29 16:17 232 21.7
2016-Sep-29 16:02 226 22.2
2016-Sep-29 15:47 221 1 gusting 3 22.8
2016-Sep-29 15:32 146 0 gusting 3 22.8
2016-Sep-29 15:17 136 22.8
2016-Sep-29 15:02 165 0 gusting 2 23.3
2016-Sep-29 14:47 225 2 gusting 5 23.3
2016-Sep-29 14:32 160 0 gusting 4 23.3
2016-Sep-29 14:17 212 3 gusting 6 23.3
2016-Sep-29 14:03 218 1 gusting 6 23.3
2016-Sep-29 13:47 246 1 gusting 4 22.8
2016-Sep-29 13:32 225 2 gusting 8 22.8
2016-Sep-29 13:17 352 23.3
2016-Sep-29 13:02 257 2 gusting 9 22.8
2016-Sep-29 12:47 315 1 gusting 5 22.2
2016-Sep-29 12:32 229 2 gusting 6 21.7
2016-Sep-29 12:17 304 1 gusting 4 22.2
2016-Sep-29 12:02 075 1 gusting 2 21.7
2016-Sep-29 11:47 092 2 gusting 6 21.1
2016-Sep-29 11:32 018 0 gusting 4 21.1
2016-Sep-29 11:17 293 1 gusting 3 20.6
2016-Sep-29 11:02 119 1 gusting 5 21.1
2016-Sep-29 10:46 074 0 gusting 3 20.0
2016-Sep-29 10:31 156 2 gusting 6 19.4
2016-Sep-29 10:16 044 1 gusting 6 18.9
2016-Sep-29 10:01 074 2 gusting 6 18.3
2016-Sep-29 09:46 089 2 gusting 4 17.8
2016-Sep-29 09:31 085 1 gusting 3 17.2
2016-Sep-29 09:16 122 16.7
2016-Sep-29 09:01 082 0 gusting 3 15.6
2016-Sep-29 08:46 044 15.0
2016-Sep-29 08:31 099 13.9
2016-Sep-29 08:16 065 0 gusting 1 12.8
2016-Sep-29 08:01 090 11.7
2016-Sep-29 07:46 105 11.1
2016-Sep-29 07:31 105 10.0
2016-Sep-29 07:16 078 8.3
2016-Sep-29 07:00 125 7.8
2016-Sep-29 06:45 102 6.7
2016-Sep-29 06:30 039 6.1
2016-Sep-29 06:15 039 5.0
2016-Sep-29 06:00 040 4.4
2016-Sep-29 05:45 039 3.9
2016-Sep-29 05:30 040 3.9
2016-Sep-29 05:15 040 3.9
2016-Sep-29 05:00 040 3.9
2016-Sep-29 04:45 039 3.9
2016-Sep-29 04:30 040 4.4
2016-Sep-29 04:15 040 4.4
2016-Sep-29 04:00 039 4.4
2016-Sep-29 03:45 039 4.4
2016-Sep-29 03:30 040 5.0
2016-Sep-29 03:15 277 4.4
2016-Sep-29 03:00 277 5.0
2016-Sep-29 02:45 276 5.0
2016-Sep-29 02:30 276 5.0
2016-Sep-29 02:15 295 5.6
2016-Sep-29 02:00 295 5.6
2016-Sep-29 01:45 295 6.1
2016-Sep-29 01:30 295 6.1
2016-Sep-29 01:15 295 6.1
2016-Sep-29 01:00 295 6.1